Weather History for Idabel, OK

Change the Weather History Date:

Saturday, October 6, 2012

  Actual Average (KDEQ) Record (KDEQ)
Temperature  
Mean Temperature 50 °F 66 °F  
Max Temperature 55 °F 79 °F 97 °F (1956)
Min Temperature 44 °F 53 °F 35 °F (1964)
Degree Days  
Heating Degree Days 16 2  
Month to date heating degree days 12  
Since 1 July heating degree days 21  
Cooling Degree Days 0 3  
Month to date cooling degree days 22  
Year to date cooling degree days 1887  
Moisture  
Dew Point 41 °F    
Average Humidity 73    
Maximum Humidity 94    
Minimum Humidity 54    
Precipitation  
Precipitation 0.22 in 0.15 in 1.67 in (1955)
Month to date precipitation 0.95  
Year to date precipitation 36.15  
Snow  
Snow 0.00 in - - ()
Month to date snowfall  
Since 1 July snowfall  
Since 1 September snowfall  
Snow Depth -    
Sea Level Pressure  
Sea Level Pressure 30.19 in    
Wind  
Wind Speed 8 mph (NE)    
Max Wind Speed 14 mph    
Max Gust Speed 20 mph    
Visibility 10 miles    
Events      
T = Trace of Precipitation, MM = Missing Value Source: NWS Daily Summary

Daily Weather History Graph

Daily Weather History Graph

Search for Another Location

Airport:

Trip Planner

Search our weather history database for the weather conditions in past years. The results will help you decide how hot, cold, wet, or windy it might be!

Date:

Astronomy

Oct. 06, 2012 Rise Set
Actual Time 7:17 AM CDT 6:56 PM CDT
Civil Twilight 6:52 AM CDT 7:21 PM CDT
Nautical Twilight 6:23 AM CDT 7:50 PM CDT
Astronomical Twilight 5:54 AM CDT 8:19 PM CDT
Moon 11:24 PM CDT (10/6) 1:00 PM CDT (10/6)
Length of Visible Light 12h 28m
Length of Day
11h 38m
Waning Gibbous, 65% of the Moon is Illuminated
Oct 6
Waning Gibbous
Oct 8
Last Quarter
Oct 15
New
Oct 21
First Quarter
Oct 29
Full

Hourly Weather History & Observations

Time (CDT) Temp. Windchill Dew Point Humidity Pressure Visibility Wind Dir Wind Speed Gust Speed Precip Events Conditions
12:15 AM 55.4 °F - 50.0 °F 82% 30.11 in 10.0 mi North 6.9 mph - N/A   Overcast
12:35 AM 55.4 °F - 50.0 °F 82% 30.11 in 10.0 mi NNE 5.8 mph - N/A   Overcast
12:55 AM 55.4 °F - 50.0 °F 82% 30.12 in 10.0 mi North 5.8 mph - N/A   Overcast
1:15 AM 55.4 °F - 50.0 °F 82% 30.12 in 10.0 mi NNE 9.2 mph - N/A   Overcast
1:35 AM 55.4 °F - 50.0 °F 82% 30.14 in 10.0 mi North 6.9 mph - N/A   Overcast
1:55 AM 55.4 °F - 50.0 °F 82% 30.13 in 10.0 mi NNE 8.1 mph - N/A   Overcast
2:15 AM 55.4 °F - 50.0 °F 82% 30.13 in 10.0 mi NNE 6.9 mph - N/A   Overcast
2:35 AM 55.4 °F - 50.0 °F 82% 30.13 in 10.0 mi NNE 11.5 mph - N/A   Overcast
2:55 AM 53.6 °F - 50.0 °F 88% 30.13 in 7.0 mi NNE 8.1 mph - 0.01 in   Overcast
3:15 AM 53.6 °F - 50.0 °F 88% 30.13 in 4.0 mi NE 8.1 mph - 0.18 in   Overcast
3:35 AM 51.8 °F - 50.0 °F 94% 30.13 in 10.0 mi NNE 8.1 mph - 0.19 in   Overcast
3:55 AM 51.8 °F - 50.0 °F 94% 30.14 in 10.0 mi NNE 5.8 mph - 0.19 in   Overcast
4:15 AM 51.8 °F - 50.0 °F 94% 30.13 in 10.0 mi NE 5.8 mph - N/A   Overcast
4:35 AM 51.8 °F - 50.0 °F 94% 30.14 in 10.0 mi NE 6.9 mph - N/A   Overcast
4:55 AM 51.8 °F - 50.0 °F 94% 30.14 in 10.0 mi NE 9.2 mph - N/A   Overcast
5:15 AM 51.8 °F - 50.0 °F 94% 30.15 in 10.0 mi NE 10.4 mph - N/A   Overcast
5:35 AM 51.8 °F - 48.2 °F 88% 30.15 in 10.0 mi NE 10.4 mph - N/A   Overcast
5:55 AM 51.8 °F - 46.4 °F 82% 30.16 in 10.0 mi NNE 9.2 mph - N/A   Overcast
6:15 AM 51.8 °F - 44.6 °F 76% 30.15 in 10.0 mi NE 11.5 mph - N/A   Overcast
6:35 AM 51.8 °F - 44.6 °F 76% 30.16 in 10.0 mi ENE 10.4 mph - N/A   Overcast
6:55 AM 50.0 °F - 42.8 °F 76% 30.16 in 10.0 mi ENE 11.5 mph - N/A   Overcast
7:15 AM 50.0 °F - 42.8 °F 76% 30.18 in 10.0 mi ENE 6.9 mph - N/A   Overcast
7:35 AM 50.0 °F - 42.8 °F 76% 30.19 in 10.0 mi NNE 4.6 mph - N/A   Overcast
7:55 AM 50.0 °F - 42.8 °F 76% 30.18 in 10.0 mi ENE 4.6 mph - 0.01 in   Overcast
8:35 AM 50.0 °F - 42.8 °F 76% 30.19 in 10.0 mi East 5.8 mph - N/A   Overcast
9:15 AM 50.0 °F - 42.8 °F 76% 30.19 in 10.0 mi East 3.5 mph - N/A   Overcast
9:35 AM 50.0 °F - 41.0 °F 71% 30.21 in 10.0 mi East 5.8 mph - N/A   Overcast
9:55 AM 50.0 °F - 41.0 °F 71% 30.21 in 10.0 mi East 5.8 mph - N/A   Overcast
10:15 AM 50.0 °F - 41.0 °F 71% 30.21 in 10.0 mi East 4.6 mph - N/A   Overcast
10:35 AM 50.0 °F - 41.0 °F 71% 30.21 in 10.0 mi East 5.8 mph - N/A   Overcast
10:55 AM 51.8 °F - 41.0 °F 67% 30.20 in 10.0 mi ENE 8.1 mph - N/A   Overcast
11:15 AM 51.8 °F - 41.0 °F 67% 30.20 in 10.0 mi NNE 8.1 mph - N/A   Overcast
11:35 AM 51.8 °F - 39.2 °F 62% 30.21 in 10.0 mi NE 8.1 mph - N/A   Overcast
11:55 AM 51.8 °F - 37.4 °F 58% 30.21 in 10.0 mi NE 8.1 mph - N/A   Overcast
12:15 PM 51.8 °F - 37.4 °F 58% 30.21 in 10.0 mi NE 10.4 mph 17.3 mph N/A   Overcast
12:35 PM 51.8 °F - 37.4 °F 58% 30.20 in 10.0 mi NE 12.7 mph 18.4 mph N/A   Overcast
12:55 PM 51.8 °F - 37.4 °F 58% 30.20 in 10.0 mi NE 12.7 mph 17.3 mph N/A   Overcast
1:15 PM 51.8 °F - 37.4 °F 58% 30.20 in 10.0 mi NE 10.4 mph 17.3 mph N/A   Overcast
1:35 PM 51.8 °F - 35.6 °F 54% 30.20 in 10.0 mi NE 11.5 mph 17.3 mph N/A   Overcast
1:55 PM 51.8 °F - 35.6 °F 54% 30.20 in 10.0 mi NE 6.9 mph - N/A   Overcast
2:15 PM 51.8 °F - 35.6 °F 54% 30.18 in 10.0 mi ENE 10.4 mph - N/A   Overcast
2:35 PM 51.8 °F - 37.4 °F 58% 30.17 in 10.0 mi ENE 10.4 mph 16.1 mph N/A   Overcast
2:55 PM 51.8 °F - 35.6 °F 54% 30.16 in 10.0 mi NE 10.4 mph 17.3 mph N/A   Overcast
3:15 PM 51.8 °F - 35.6 °F 54% 30.17 in 10.0 mi NNE 9.2 mph - N/A   Overcast
3:35 PM 51.8 °F - 35.6 °F 54% 30.17 in 10.0 mi NE 10.4 mph - N/A   Overcast
3:55 PM 51.8 °F - 37.4 °F 58% 30.17 in 10.0 mi NE 13.8 mph 18.4 mph N/A   Overcast
4:15 PM 51.8 °F - 37.4 °F 58% 30.18 in 10.0 mi NE 10.4 mph 16.1 mph N/A   Overcast
4:35 PM 50.0 °F - 37.4 °F 62% 30.17 in 10.0 mi NE 11.5 mph 17.3 mph N/A   Overcast
4:55 PM 50.0 °F - 37.4 °F 62% 30.18 in 10.0 mi NE 12.7 mph 17.3 mph N/A   Overcast
5:15 PM 48.2 °F - 35.6 °F 62% 30.18 in 10.0 mi NE 12.7 mph 17.3 mph N/A   Overcast
5:35 PM 46.4 °F 41.1 °F 33.8 °F 62% 30.19 in 10.0 mi NE 11.5 mph 19.6 mph N/A   Overcast
5:55 PM 46.4 °F 41.5 °F 33.8 °F 62% 30.20 in 10.0 mi NE 10.4 mph - N/A   Overcast
6:15 PM 46.4 °F 42.9 °F 35.6 °F 66% 30.20 in 10.0 mi ENE 6.9 mph - N/A   Overcast
6:35 PM 44.6 °F 43.1 °F 37.4 °F 76% 30.21 in 10.0 mi ENE 3.5 mph - 0.01 in   Overcast
6:55 PM 44.6 °F 42.2 °F 37.4 °F 76% 30.20 in 10.0 mi East 4.6 mph - 0.01 in   Overcast
7:15 PM 44.6 °F 41.4 °F 37.4 °F 76% 30.19 in 10.0 mi ENE 5.8 mph - N/A   Overcast
7:35 PM 44.6 °F 41.4 °F 37.4 °F 76% 30.22 in 10.0 mi North 5.8 mph - N/A   Overcast
7:55 PM 44.6 °F 42.2 °F 37.4 °F 76% 30.24 in 10.0 mi NNE 4.6 mph - N/A   Overcast
8:15 PM 44.6 °F 40.2 °F 35.6 °F 71% 30.24 in 10.0 mi NNE 8.1 mph - N/A   Overcast
8:35 PM 44.6 °F 40.7 °F 37.4 °F 76% 30.23 in 10.0 mi NE 6.9 mph - N/A   Overcast
8:55 PM 44.6 °F 41.4 °F 37.4 °F 76% 30.24 in 10.0 mi North 5.8 mph - N/A   Overcast
9:15 PM 44.6 °F 43.1 °F 37.4 °F 76% 30.25 in 10.0 mi North 3.5 mph - N/A   Overcast
9:35 PM 44.6 °F 40.7 °F 37.4 °F 76% 30.25 in 10.0 mi North 6.9 mph - N/A   Overcast
9:55 PM 44.6 °F 41.4 °F 37.4 °F 76% 30.26 in 10.0 mi North 5.8 mph - N/A   Overcast
10:15 PM 44.6 °F 42.2 °F 39.2 °F 81% 30.26 in 10.0 mi North 4.6 mph - N/A   Overcast
10:35 PM 44.6 °F 43.1 °F 39.2 °F 81% 30.27 in 10.0 mi NNE 3.5 mph - N/A   Overcast
10:55 PM 44.6 °F 41.4 °F 37.4 °F 76% 30.27 in 10.0 mi NE 5.8 mph - N/A   Mostly Cloudy
11:15 PM 44.6 °F 41.4 °F 37.4 °F 76% 30.26 in 10.0 mi NE 5.8 mph - N/A   Mostly Cloudy
11:35 PM 44.6 °F 40.7 °F 37.4 °F 76% 30.26 in 10.0 mi ENE 6.9 mph - N/A   Mostly Cloudy
11:55 PM 44.6 °F 41.4 °F 37.4 °F 76% 30.27 in 10.0 mi ENE 5.8 mph - N/A   Overcast